Regional Weather Roundup
Issued by NWS Spokane, WA

Home | Current Version | Previous Version | Text Only | Print | Product List | Glossary On
Versions: 1 2 3 4 5 6 7 8 9 10 11 12 13 14 15 16 17 18 19 20 21 22 23 24 25 26 27 28 29 30 31 32 33 34 35 36 37 38 39 40 41 42 43 44 45 46 47 48 49 50
944
NZUS01 KOTX 210725
RWROTX

Eastern Washington/Northern Idaho Roundup
National Weather Service, Spokane WA
1200 AM PDT THU SEP 21 2017

Note: "fair" indicated few or no clouds below 12,000 feet with no
significant weather and/or obstructions to visibility.

...Northeast Washington and Northern Idaho Panhandle...

CITY           SKY/WX    TMP DP  RH WIND       PRES   REMARKS
Spokane Intl   CLOUDY    42  41  96 CALM      29.74F
Spokane Downto MOCLDY    46  44  93 CALM      29.76R
Coeur d Alene  CLOUDY    43  42  97 S3        29.76R
Deer Park      MOCLDY    41  39  93 CALM      29.75S
Sandpoint      CLOUDY    43  39  87 SW3       29.75R
Bonners Ferry  CLOUDY    45  39  81 SW3       29.72S

...Southeast Washington and southern Idaho Panhandle...

CITY           SKY/WX    TMP DP  RH WIND       PRES   REMARKS
Walla Walla    MOCLDY    51  42  71 SW15      29.76R
Pullman/Moscow CLOUDY    45  42  89 CALM      29.77R
Lewiston       CLOUDY    50  41  71 CALM      29.75S
Lowell           N/A     47  44  90 CALM      29.80S
Grangeville    PTSUNNY   37  34  87 CALM      29.76S

...Columbia Basin...

CITY           SKY/WX    TMP DP  RH WIND       PRES   REMARKS
Ephrata        PTCLDY    43  37  79 N6        29.73R
Moses Lake     PTCLDY    41  38  89 SE5       29.73S
Pasco          CLEAR     47  42  83 CALM      29.76R
Richland       SUNNY     49  42  78 SW7       29.76R
Hermiston      CLEAR     47  42  83 SW7       29.77R
Pendleton      PTCLDY    46  39  76 SW5       29.77R

...East Slopes Cascades...

CITY           SKY/WX    TMP DP  RH WIND       PRES   REMARKS
The Dalles     CLEAR     48  42  80 VRB3      29.80S
Yakima         CLEAR     39  34  82 CALM      29.76R
Ellensburg     PTCLDY    48  37  65 NW12      29.75R
Stampede Pass  FOG       38  37  97 VRB3      29.80R VSB 1/4
Wenatchee      MOCLDY    48  36  63 W7        29.73R
Omak           LGT RAIN  49  48  97 NW5       29.75R
Chelan           N/A     52  37  58 N8          N/A
Sunnyside      SUNNY     38  36  95 CALM      29.77R

...Southern British Columbia...

CITY           SKY/WX    TMP DP  RH WIND       PRES   REMARKS
Penticton      LGT RAIN  48  43  81 CALM      29.76R
Cranbrook      MOCLDY    41  36  81 SE7       29.68R
Osoyoos          N/A     50  46  87 E1          N/A
Creston          N/A     45  39  81 E2          N/A

...Western Montana...

CITY           SKY/WX    TMP DP  RH WIND       PRES   REMARKS
Kalispell      CLOUDY    44  38  79 S6        29.71S
Libby            N/A     37  36  93 CALM      29.71R
Missoula       CLOUDY    42  38  85 CALM      29.75S

...Neighboring Cities...

CITY           SKY/WX    TMP DP  RH WIND       PRES   REMARKS
Seattle        CLOUDY    51  48  89 SE7       29.83S
Portland       MOCLDY    50  49  96 SE3       29.87S
Boise          CLOUDY    49  44  83 SE6       29.73R
Great Falls    CLOUDY    42  30  62 SW13      29.67F
Calgary        MOCLDY    37  28  70 N21G28    29.64R



USA.gov is the U.S. government's official web portal to all federal, state and local government web resources and services.